SCP
0 0 0 0 0 0 0 0 0 0 0 0 0 0 0 0 0 0 0 0 0 0 0 0 0 0 0 0 0 0 0 0
0 0 0 0 0 0 0 0 0 0 0 0 0 0 0 0 0 0 0 0 0 0 0 0 0 0 0 0 0 0 0 0
0 0 0 0 0 0 0 0 0 0 0 0 0 0 0 0 0 0 0 0 0 0 0 0 0 0 0 0 0 0 0 0
0 0 0 0 0 0 0 0 0 0 0 0 0 0 0 0 0 0 0 0 0 0 0 0 0 0 0 0 0 0 0 0
0 0 0 0 0 0 0 0 0 0 0 0 0 0 0 0 0 0 0 0 0 0 0 0 0 0 0 0 0 0 0 0
0 0 0 0 0 0 0 0 0 0 0 0 0 0 0 0 0 0 0 0 0 0 0 0 0 0 0 0 0 0 0 0
0 0 0 0 0 0 0 0 0 0 0 0 0 0 0 0 0 0 0 0 0 0 0 0 0 0 0 0 0 0 0 0
0 0 0 0 0 0 0 0 0 0 0 0 0 0 0 0 0 0 0 0 0 0 0 0 0 0 0 0 0 0 0 0
0 0 0 0 0 0 0 0 0 0 0 0 0 0 0 0 0 0 0 0 0 0 0 0 0 0 0 0 0 0 0 0
0 0 0 0 0 0 0 0 0 0 0 0 0 0 0 0 0 0 0 0 0 0 0 0 0 0 0 0 0 0 0 0
0 0 0 0 0 0 0 0 0 0 0 0 0 0 0 0 0 0 0 0 0 0 0 0 0 0 0 0 0 0 0 0
0 0 0 0 0 0 0 0 0 0 0 0 0 0 0 0 0 0 0 0 0 0 0 0 0 0 0 0 0 0 0 0
0 0 0 0 0 0 0 0 0 0 0 0 0 0 0 0 0 0 0 0 0 0 0 0 0 0 0 0 0 0 0 0
0 0 0 0 0 0 0 0 0 0 0 0 0 0 0 0 0 0 0 0 0 0 0 0 0 0 0 0 0 0 0 0
0 0 0 0 0 0 0 0 0 0 0 0 0 0 0 0 0 0 0 0 0 0 0 0 0 0 0 0 0 0 0 0
0 0 0 0 0 0 0 0 0 0 0 0 0 0 0 0 0 0 0 0 0 0 0 0 0 0 0 0 0 0 0 0
0 0 0 0 0 0 0 0 0 0 0 0 0 0 0 0 0 0 0 0 0 0 0 0 0 0 0 0 0 0 0 0
0 0 0 0 0 0 0 0 0 0 0 0 0 0 0 0 0 0 0 0 0 0 0 0 0 0 0 0 0 0 0 0
0 0 0 0 0 0 0 0 0 0 0 0 0 0 0 0 0 0 0 0 0 0 0 0 0 0 0 0 0 0 0 0
0 0 0 0 0 0 0 0 0 0 0 0 0 0 0 0 0 0 0 0 0 0 0 0 0 0 0 0 0 0 0 0
Wind_Speed_500mb
60 47 38 53 57 69 88 91 87 85 85 85 88 86 80 78 77 73 70 67 66 65 63 59 59 60 64 67 67 72 73 70
55 62 52 38 50 57 68 84 87 87 84 81 84 86 82 80 75 70 68 69 66 62 59 57 57 60 63 63 62 62 64 65
38 45 59 52 43 48 59 67 73 75 77 77 78 81 82 79 74 69 66 65 65 62 60 59 59 59 60 59 60 64 67 67
31 39 49 52 48 45 44 51 61 61 63 66 69 72 73 72 69 67 65 65 63 62 63 62 61 59 57 59 64 62 65 61
26 32 43 47 46 45 45 47 50 51 52 55 56 56 58 62 66 68 68 66 66 64 62 61 59 56 54 62 59 62 58 55
39 39 39 42 41 43 39 39 44 47 50 51 50 53 57 61 63 65 66 66 65 63 59 55 54 55 56 58 58 56 56 58
44 39 36 36 37 37 37 36 38 39 37 39 42 44 47 51 55 58 61 63 63 63 60 55 48 53 53 53 55 57 56 58
45 35 26 25 29 32 33 35 35 35 35 36 37 38 39 41 43 44 44 44 46 50 51 46 49 49 54 52 57 53 54 57
45 30 20 21 24 30 32 31 30 28 28 28 28 30 32 32 32 32 34 35 37 39 40 43 48 52 51 50 52 55 57 50
39 39 26 26 31 34 34 32 27 22 20 20 23 26 29 28 29 31 32 32 33 34 38 43 47 51 53 57 59 55 49 50
54 51 45 43 43 40 35 33 29 26 25 27 28 32 35 36 37 39 39 37 39 40 41 43 43 44 47 47 47 48 48 50
66 66 52 49 51 47 44 41 37 35 38 42 46 48 47 44 45 44 44 44 44 43 42 41 38 35 32 31 30 29 27 23
65 68 65 54 53 53 51 49 48 48 51 54 52 47 44 42 42 41 40 40 37 35 34 31 29 29 27 25 24 24 25 24
54 58 59 57 57 58 56 52 53 55 53 50 47 44 41 40 39 38 37 35 33 29 27 25 25 24 18 16 20 21 24 24
45 48 47 46 47 51 51 52 51 49 47 44 41 37 34 33 32 32 30 27 23 19 17 17 15 13 17 18 19 20 22 21
39 42 42 41 39 40 41 42 41 40 36 31 28 27 28 26 24 20 17 15 18 17 17 16 15 15 16 17 18 19 17 17
29 30 31 30 29 30 30 29 29 29 26 24 24 24 22 21 22 20 12 12 10 11 11 11 10 10 11 11 11 11 12 15
24 27 25 24 23 23 24 23 23 23 23 22 23 23 22 20 17 24 23 16 15 14 13 12 9 10 9 10 10 10 11 6
19 20 20 19 20 21 19 18 19 21 24 25 26 28 29 28 27 26 26 24 19 15 12 12 10 6 5 6 6 7 5 3
21 20 20 21 21 23 22 20 22 25 26 27 29 30 30 29 29 27 27 25 22 18 15 10 7 6 7 7 8 7 2 1
Wind_Direction_500mb
244 246 253 246 243 238 237 238 240 242 243 243 242 243 245 248 250 252 254 255 255 255 254 253 254 255 255 257 258 259 259 258
261 239 245 251 240 235 232 234 236 239 241 243 242 243 245 248 252 254 255 257 258 259 256 254 253 255 257 260 263 265 265 262
256 245 240 237 241 238 233 234 236 241 243 243 244 245 247 249 251 254 258 259 260 259 257 255 254 255 258 262 266 264 266 266
254 253 239 234 235 234 239 241 233 233 237 238 240 244 246 249 250 255 257 258 258 258 257 256 256 256 253 259 261 262 262 263
280 264 250 242 237 237 242 234 225 229 233 234 236 238 241 244 248 253 256 258 258 258 258 258 257 254 257 256 259 260 259 261
284 270 254 241 229 224 222 221 220 223 228 231 235 238 242 244 247 252 255 257 259 261 261 259 256 252 251 256 255 255 255 257
284 273 259 245 227 216 216 217 218 221 225 228 231 233 238 244 249 252 255 257 256 254 253 251 247 249 247 251 249 251 253 253
285 264 244 227 213 210 207 205 207 210 212 219 227 234 238 241 244 247 250 251 250 248 246 243 240 241 246 245 250 253 257 261
284 248 228 217 207 199 200 199 201 205 214 224 231 236 237 239 243 246 246 246 246 244 244 242 241 243 243 244 246 250 256 255
283 248 234 233 221 214 206 205 205 211 221 228 233 237 242 243 244 246 247 245 242 238 235 234 235 238 241 244 247 248 248 250
265 241 242 242 232 226 224 225 219 223 234 242 250 256 254 248 244 241 238 235 233 233 232 236 239 240 244 249 253 257 257 258
255 249 246 241 234 229 229 229 231 232 240 242 244 245 246 246 245 243 241 238 240 238 239 241 244 244 251 255 254 251 246 244
248 244 246 235 232 232 234 235 234 238 240 240 244 247 251 252 251 249 249 248 249 251 252 249 240 245 245 242 245 251 252 249
241 230 227 228 229 230 231 231 236 238 238 242 245 247 248 249 245 243 243 242 244 244 241 234 229 233 234 233 250 259 268 273
228 221 220 221 222 226 228 233 235 237 238 238 239 238 232 228 229 235 237 237 233 227 216 215 225 233 219 231 241 245 253 255
232 221 216 220 222 225 226 229 232 233 228 223 219 216 211 207 209 212 213 207 188 187 198 209 218 228 238 241 241 243 244 257
230 231 219 221 228 230 232 231 225 219 214 206 201 193 186 186 168 148 152 155 162 177 194 206 208 214 219 230 235 249 269 273
225 228 229 219 221 220 212 204 202 203 192 177 169 160 156 147 145 150 143 152 161 168 180 183 186 204 219 229 241 236 242 233
218 216 213 205 197 197 189 182 183 176 160 156 150 145 147 150 148 143 146 150 150 168 178 178 179 194 221 238 235 205 201 182
206 203 191 180 176 173 169 171 172 162 154 151 151 152 154 155 154 151 146 140 136 130 132 135 138 143 171 169 181 178 185 306
Wind_Speed_850mb
60 47 38 53 57 69 88 91 87 85 85 85 88 86 80 78 77 73 70 67 66 65 63 59 59 60 64 67 67 72 73 70
55 62 52 38 50 57 68 84 87 87 84 81 84 86 82 80 75 70 68 69 66 62 59 57 57 60 63 63 62 62 64 65
38 45 59 52 43 48 59 67 73 75 77 77 78 81 82 79 74 69 66 65 65 62 60 59 59 59 60 59 60 64 67 67
31 39 49 52 48 45 44 51 61 61 63 66 69 72 73 72 69 67 65 65 63 62 63 62 61 59 57 59 64 62 65 61
26 32 43 47 46 45 45 47 50 51 52 55 56 56 58 62 66 68 68 66 66 64 62 61 59 56 54 62 59 62 58 55
39 39 39 42 41 43 39 39 44 47 50 51 50 53 57 61 63 65 66 66 65 63 59 55 54 55 56 58 58 56 56 58
44 39 36 36 37 37 37 36 38 39 37 39 42 44 47 51 55 58 61 63 63 63 60 55 48 53 53 53 55 57 56 58
45 35 26 25 29 32 33 35 35 35 35 36 37 38 39 41 43 44 44 44 46 50 51 46 49 49 54 52 57 53 54 57
45 30 20 21 24 30 32 31 30 28 28 28 28 30 32 32 32 32 34 35 37 39 40 43 48 52 51 50 52 55 57 50
39 39 26 26 31 34 34 32 27 22 20 20 23 26 29 28 29 31 32 32 33 34 38 43 47 51 53 57 59 55 49 50
54 51 45 43 43 40 35 33 29 26 25 27 28 32 35 36 37 39 39 37 39 40 41 43 43 44 47 47 47 48 48 50
66 66 52 49 51 47 44 41 37 35 38 42 46 48 47 44 45 44 44 44 44 43 42 41 38 35 32 31 30 29 27 23
65 68 65 54 53 53 51 49 48 48 51 54 52 47 44 42 42 41 40 40 37 35 34 31 29 29 27 25 24 24 25 24
54 58 59 57 57 58 56 52 53 55 53 50 47 44 41 40 39 38 37 35 33 29 27 25 25 24 18 16 20 21 24 24
45 48 47 46 47 51 51 52 51 49 47 44 41 37 34 33 32 32 30 27 23 19 17 17 15 13 17 18 19 20 22 21
39 42 42 41 39 40 41 42 41 40 36 31 28 27 28 26 24 20 17 15 18 17 17 16 15 15 16 17 18 19 17 17
29 30 31 30 29 30 30 29 29 29 26 24 24 24 22 21 22 20 12 12 10 11 11 11 10 10 11 11 11 11 12 15
24 27 25 24 23 23 24 23 23 23 23 22 23 23 22 20 17 24 23 16 15 14 13 12 9 10 9 10 10 10 11 6
19 20 20 19 20 21 19 18 19 21 24 25 26 28 29 28 27 26 26 24 19 15 12 12 10 6 5 6 6 7 5 3
21 20 20 21 21 23 22 20 22 25 26 27 29 30 30 29 29 27 27 25 22 18 15 10 7 6 7 7 8 7 2 1
Wind_Direction_850mb
244 246 253 246 243 238 237 238 240 242 243 243 242 243 245 248 250 252 254 255 255 255 254 253 254 255 255 257 258 259 259 258
261 239 245 251 240 235 232 234 236 239 241 243 242 243 245 248 252 254 255 257 258 259 256 254 253 255 257 260 263 265 265 262
256 245 240 237 241 238 233 234 236 241 243 243 244 245 247 249 251 254 258 259 260 259 257 255 254 255 258 262 266 264 266 266
254 253 239 234 235 234 239 241 233 233 237 238 240 244 246 249 250 255 257 258 258 258 257 256 256 256 253 259 261 262 262 263
280 264 250 242 237 237 242 234 225 229 233 234 236 238 241 244 248 253 256 258 258 258 258 258 257 254 257 256 259 260 259 261
284 270 254 241 229 224 222 221 220 223 228 231 235 238 242 244 247 252 255 257 259 261 261 259 256 252 251 256 255 255 255 257
284 273 259 245 227 216 216 217 218 221 225 228 231 233 238 244 249 252 255 257 256 254 253 251 247 249 247 251 249 251 253 253
285 264 244 227 213 210 207 205 207 210 212 219 227 234 238 241 244 247 250 251 250 248 246 243 240 241 246 245 250 253 257 261
284 248 228 217 207 199 200 199 201 205 214 224 231 236 237 239 243 246 246 246 246 244 244 242 241 243 243 244 246 250 256 255
283 248 234 233 221 214 206 205 205 211 221 228 233 237 242 243 244 246 247 245 242 238 235 234 235 238 241 244 247 248 248 250
265 241 242 242 232 226 224 225 219 223 234 242 250 256 254 248 244 241 238 235 233 233 232 236 239 240 244 249 253 257 257 258
255 249 246 241 234 229 229 229 231 232 240 242 244 245 246 246 245 243 241 238 240 238 239 241 244 244 251 255 254 251 246 244
248 244 246 235 232 232 234 235 234 238 240 240 244 247 251 252 251 249 249 248 249 251 252 249 240 245 245 242 245 251 252 249
241 230 227 228 229 230 231 231 236 238 238 242 245 247 248 249 245 243 243 242 244 244 241 234 229 233 234 233 250 259 268 273
228 221 220 221 222 226 228 233 235 237 238 238 239 238 232 228 229 235 237 237 233 227 216 215 225 233 219 231 241 245 253 255
232 221 216 220 222 225 226 229 232 233 228 223 219 216 211 207 209 212 213 207 188 187 198 209 218 228 238 241 241 243 244 257
230 231 219 221 228 230 232 231 225 219 214 206 201 193 186 186 168 148 152 155 162 177 194 206 208 214 219 230 235 249 269 273
225 228 229 219 221 220 212 204 202 203 192 177 169 160 156 147 145 150 143 152 161 168 180 183 186 204 219 229 241 236 242 233
218 216 213 205 197 197 189 182 183 176 160 156 150 145 147 150 148 143 146 150 150 168 178 178 179 194 221 238 235 205 201 182
206 203 191 180 176 173 169 171 172 162 154 151 151 152 154 155 154 151 146 140 136 130 132 135 138 143 171 169 181 178 185 306